Date String (YYYY-MM-DD hh:mm:ss) UTC,Instrument flags,Ambient pressure (hPa),Sample flow (lpm),Bypass flow (lpm),Sample temperature (°C),Ambient temperature (°C),ASC tube jacket temperature (°C),LED temperature (°C),Box temperature (°C),Sample RH (%),Span deviation,Mass concentration (μg/m³),Mass concentration (μg/m³),Mass concentration (μg/m³)
DateTimeUTC,F1_M11,P_M11,Q1_M11,Q2_M11,T1_M11,T2_M11,T3_M11,T4_M11,T5_M11,U1_M11,ZSPAN_M11,X2_M11,X0_M11,X1_M11
2022-10-11 03:00:00,,0823.0,5.00,0.00,30.0,28.6,00.0,38.7,31.7,12.7,0000.0,0003.47,0005.38,0003.17
2022-10-11 03:01:00,,0822.9,4.99,0.00,30.0,28.6,00.0,38.7,31.8,12.7,0000.0,0003.49,0005.53,0003.16
2022-10-11 03:02:00,,0822.9,5.01,0.00,30.0,28.6,00.0,38.7,31.8,12.7,0000.0,0003.48,0005.57,0003.15
2022-10-11 03:03:00,,0823.0,5.01,0.00,30.0,28.6,00.0,38.8,31.8,12.6,0000.0,0003.47,0005.43,0003.15
2022-10-11 03:04:00,,0822.9,4.99,0.00,30.0,28.6,00.0,38.8,31.8,12.6,0000.0,0003.43,0005.16,0003.15
2022-10-11 03:05:00,,0823.0,5.01,0.00,30.0,28.6,00.0,38.8,31.8,12.7,0000.0,0003.44,0005.70,0003.15
2022-10-11 03:06:00,,0822.9,5.00,0.00,30.0,28.6,00.0,38.8,31.8,12.7,0000.0,0003.44,0006.31,0003.16
2022-10-11 03:07:00,,0822.9,5.01,0.00,30.0,28.6,00.0,38.8,31.8,12.7,0000.0,0003.43,0006.32,0003.16
2022-10-11 03:08:00,,0823.1,4.99,0.00,30.0,28.6,00.0,38.8,31.9,12.6,0000.0,0003.46,0006.75,0003.16
2022-10-11 03:09:00,,0822.9,5.00,0.00,30.0,28.6,00.0,38.8,31.9,12.5,0000.0,0003.50,0007.27,0003.17
2022-10-11 03:10:00,,0822.9,5.00,0.00,30.0,28.7,00.0,38.8,31.9,12.5,0000.0,0003.50,0007.39,0003.18
2022-10-11 03:11:00,,0822.9,5.00,0.00,30.0,28.7,00.0,38.8,31.9,12.5,0000.0,0003.51,0007.57,0003.18
2022-10-11 03:12:00,,0823.0,4.99,0.00,30.0,28.6,00.0,38.8,31.9,12.5,0000.0,0003.50,0007.63,0003.18
2022-10-11 03:13:00,,0823.0,5.00,0.00,30.0,28.6,00.0,38.8,31.9,12.6,0000.0,0003.50,0007.60,0003.18
2022-10-11 03:14:00,,0822.9,5.01,0.00,30.0,28.7,00.0,38.8,31.9,12.6,0000.0,0003.50,0007.58,0003.18
2022-10-11 03:15:00,,0822.9,5.01,0.00,30.1,28.7,00.0,38.8,31.9,12.5,0000.0,0003.53,0008.14,0003.18
2022-10-11 03:16:00,,0822.9,4.99,0.00,30.0,28.6,00.0,38.8,31.9,12.3,0000.0,0003.55,0008.26,0003.18
2022-10-11 03:17:00,,0822.9,4.99,0.00,30.0,27.6,00.0,38.8,31.8,12.4,0000.0,0003.59,0008.16,0003.18
2022-10-11 03:18:00,,0823.0,5.01,0.00,30.0,26.3,00.0,38.7,31.7,12.5,0000.0,0003.60,0008.20,0003.17
2022-10-11 03:19:00,,0823.0,5.01,0.00,29.9,26.2,00.0,38.7,31.5,12.4,0000.0,0003.59,0008.22,0003.17
2022-10-11 03:20:00,,0823.0,5.00,0.00,29.8,26.4,00.0,38.6,31.4,12.6,0000.0,0003.56,0008.09,0003.17
2022-10-11 03:21:00,,0822.9,5.00,0.00,29.7,26.8,00.0,38.6,31.3,12.7,0000.0,0003.54,0008.19,0003.16
2022-10-11 03:22:00,,0823.0,5.00,0.00,29.7,27.1,00.0,38.6,31.3,12.6,0000.0,0003.53,0008.01,0003.15
2022-10-11 03:23:00,,0823.0,5.01,0.00,29.6,27.3,00.0,38.5,31.3,12.6,0000.0,0003.52,0007.97,0003.15
2022-10-11 03:24:00,,0823.0,5.00,0.00,29.6,27.5,00.0,38.5,31.3,12.7,0000.0,0003.56,0008.09,0003.15
2022-10-11 03:25:00,,0823.0,4.98,0.00,29.6,27.6,00.0,38.5,31.3,12.7,0000.0,0003.56,0008.14,0003.15
2022-10-11 03:26:00,,0823.0,5.01,0.00,29.6,27.8,00.0,38.5,31.3,12.8,0000.0,0003.53,0007.58,0003.14
2022-10-11 03:27:00,,0823.0,5.00,0.00,29.6,27.9,00.0,38.5,31.4,12.7,0000.0,0003.53,0007.24,0003.15
2022-10-11 03:28:00,,0823.0,5.01,0.00,29.6,27.9,00.0,38.5,31.4,12.7,0000.0,0003.53,0007.08,0003.16
2022-10-11 03:29:00,,0823.0,4.99,0.00,29.6,28.0,00.0,38.4,31.4,12.7,0000.0,0003.55,0007.06,0003.17
2022-10-11 03:30:00,,0823.0,5.01,0.00,29.6,28.1,00.0,38.4,31.4,12.7,0000.0,0003.55,0006.91,0003.17
2022-10-11 03:31:00,,0823.0,5.01,0.00,29.6,28.1,00.0,38.4,31.4,12.8,0000.0,0003.55,0006.42,0003.17
2022-10-11 03:32:00,,0822.9,4.98,0.00,29.6,28.2,00.0,38.4,31.4,12.9,0000.0,0003.58,0006.30,0003.18
2022-10-11 03:33:00,,0822.8,5.01,0.00,29.6,28.2,00.0,38.4,31.4,13.0,0000.0,0003.58,0006.58,0003.18
2022-10-11 03:34:00,,0822.9,5.00,0.00,29.6,28.2,00.0,38.4,31.4,13.1,0000.0,0003.60,0006.87,0003.18
2022-10-11 03:35:00,,0822.9,4.99,0.00,29.6,28.2,00.0,38.4,31.5,13.2,0000.0,0003.58,0007.06,0003.17
2022-10-11 03:36:00,,0822.9,5.00,0.00,29.6,28.2,00.0,38.4,31.5,13.1,0000.0,0003.56,0007.80,0003.17
2022-10-11 03:37:00,,0822.8,5.00,0.00,29.6,28.2,00.0,38.4,31.5,13.2,0000.0,0003.57,0008.27,0003.17
2022-10-11 03:38:00,,0822.8,4.99,0.00,29.7,28.2,00.0,38.4,31.4,13.3,0000.0,0003.55,0008.46,0003.16
2022-10-11 03:39:00,,0822.8,5.00,0.00,29.7,28.2,00.0,38.4,31.5,13.3,0000.0,0003.52,0008.92,0003.15
2022-10-11 03:40:00,,0822.9,5.01,0.00,29.7,28.2,00.0,38.4,31.5,13.4,0000.0,0003.49,0009.20,0003.14
2022-10-11 03:41:00,,0822.9,5.00,0.00,29.7,28.2,00.0,38.4,31.5,13.5,0000.0,0003.47,0009.61,0003.13
2022-10-11 03:42:00,,0822.9,4.98,0.00,29.7,28.1,00.0,38.4,31.4,13.5,0000.0,0003.49,0009.68,0003.12
2022-10-11 03:43:00,,0822.8,5.01,0.00,29.7,28.1,00.0,38.4,31.4,13.4,0000.0,0003.47,0009.74,0003.10
2022-10-11 03:44:00,,0822.8,5.00,0.00,29.7,28.1,00.0,38.5,31.5,13.2,0000.0,0003.45,0010.07,0003.08
2022-10-11 03:45:00,,0823.0,5.00,0.00,29.7,28.1,00.0,38.4,31.5,13.4,0000.0,0003.44,0009.88,0003.07
2022-10-11 03:46:00,,0822.9,5.00,0.00,29.7,28.2,00.0,38.4,31.5,13.4,0000.0,0003.43,0009.83,0003.05
2022-10-11 03:47:00,,0822.9,4.99,0.00,29.7,28.1,00.0,38.4,31.5,13.1,0000.0,0003.43,0009.33,0003.03
2022-10-11 03:48:00,,0823.0,5.00,0.00,29.7,28.2,00.0,38.4,31.5,13.0,0000.0,0003.43,0008.90,0003.02
2022-10-11 03:49:00,,0822.9,5.01,0.00,29.7,28.2,00.0,38.5,31.4,13.1,0000.0,0003.42,0009.02,0003.00
2022-10-11 03:50:00,,0823.0,5.00,0.00,29.7,28.1,00.0,38.5,31.5,13.1,0000.0,0003.42,0008.44,0002.99
2022-10-11 03:51:00,,0823.0,5.01,0.00,29.7,28.2,00.0,38.5,31.5,13.1,0000.0,0003.42,0008.06,0002.98
2022-10-11 03:52:00,,0822.9,4.99,0.00,29.7,28.2,00.0,38.5,31.5,13.0,0000.0,0003.39,0007.57,0002.97
2022-10-11 03:53:00,,0823.0,5.00,0.00,29.7,28.2,00.0,38.5,31.5,12.9,0000.0,0003.34,0007.43,0002.96
2022-10-11 03:54:00,,0822.9,5.00,0.00,29.7,28.2,00.0,38.5,31.5,12.9,0000.0,0003.33,0007.70,0002.96
2022-10-11 03:55:00,,0823.0,5.00,0.00,29.7,28.2,00.0,38.5,31.5,12.8,0000.0,0003.33,0007.12,0002.95
2022-10-11 03:56:00,,0822.9,4.99,0.00,29.7,28.2,00.0,38.5,31.5,12.7,0000.0,0003.33,0007.05,0002.97
2022-10-11 03:57:00,,0822.9,5.00,0.00,29.7,28.2,00.0,38.5,31.5,12.9,0000.0,0003.34,0007.34,0002.99
2022-10-11 03:58:00,,0822.9,5.00,0.00,29.7,28.2,00.0,38.5,31.5,12.9,0000.0,0003.33,0007.57,0003.00
2022-10-11 03:59:00,,0822.9,5.00,0.00,29.7,28.2,00.0,38.5,31.5,12.8,0000.0,0003.34,0007.43,0003.02
